Temp
-9 -9 -9 -9 -9 -9 -9 -9 -9 -9 -9 -9 -9 -9 -9 -9 -9 -9 -9 -9 -9 -9 -9 -9 -9 -9 -9 -9 -9 -9 -9 -10 -10 -10 -10 -10 -10 -10 -10 -10 -11 -11 -10 -10 -10
-9 -9 -9 -9 -9 -9 -9 -9 -9 -9 -9 -9 -9 -9 -9 -9 -9 -9 -9 -9 -9 -9 -9 -9 -9 -9 -9 -9 -9 -9 -10 -10 -10 -10 -10 -10 -11 -11 -10 -11 -11 -11 -11 -11 -11
-10 -10 -10 -10 -9 -9 -9 -9 -9 -9 -9 -9 -9 -9 -9 -9 -9 -9 -9 -9 -9 -9 -9 -9 -9 -10 -10 -10 -10 -10 -10 -10 -10 -11 -10 -10 -11 -11 -11 -11 -12 -11 -11 -11 -11
-10 -10 -10 -10 -10 -9 -9 -9 -9 -9 -9 -9 -9 -9 -9 -9 -9 -10 -9 -9 -10 -10 -10 -10 -10 -10 -10 -10 -10 -10 -10 -10 -10 -11 -11 -11 -11 -11 -11 -11 -12 -11 -11 -11 -11
-9 -9 -9 -9 -9 -9 -9 -9 -9 -9 -9 -9 -9 -9 -9 -9 -10 -10 -10 -10 -10 -10 -10 -10 -10 -10 -10 -10 -10 -10 -10 -10 -11 -11 -11 -11 -11 -11 -10 -12 -11 -11 -11 -11 -10
-10 -10 -10 -10 -9 -9 -9 -9 -9 -9 -9 -9 -9 -9 -10 -10 -10 -10 -10 -10 -10 -10 -10 -10 -10 -10 -10 -10 -10 -10 -10 -10 -10 -11 -11 -11 -11 -10 -11 -11 -11 -11 -11 -11 -10
-10 -10 -10 -10 -10 -10 -10 -10 -10 -10 -10 -10 -10 -10 -10 -10 -10 -10 -10 -11 -11 -11 -10 -10 -10 -10 -10 -10 -10 -10 -10 -10 -11 -11 -11 -11 -10 -11 -11 -11 -11 -11 -11 -11 -11
-10 -10 -10 -10 -10 -10 -10 -10 -10 -10 -10 -10 -10 -10 -10 -11 -11 -11 -11 -11 -11 -11 -11 -11 -10 -10 -10 -11 -10 -10 -10 -10 -11 -11 -11 -11 -10 -11 -11 -11 -10 -10 -11 -11 -11
-11 -11 -11 -11 -10 -10 -10 -10 -10 -10 -10 -10 -10 -10 -10 -11 -11 -11 -11 -11 -11 -11 -11 -11 -10 -10 -11 -11 -10 -11 -10 -10 -10 -11 -10 -10 -9 -10 -11 -10 -10 -10 -11 -11 -11
-11 -11 -11 -11 -11 -11 -11 -11 -11 -11 -10 -10 -10 -10 -11 -11 -11 -11 -11 -11 -11 -11 -11 -11 -11 -11 -11 -11 -11 -10 -10 -10 -10 -11 -10 -9 -9 -10 -10 -10 -10 -10 -10 -11 -11
-12 -11 -11 -11 -11 -11 -11 -11 -11 -11 -11 -11 -11 -11 -11 -11 -11 -11 -11 -11 -11 -11 -11 -11 -11 -11 -11 -11 -11 -10 -10 -10 -11 -11 -10 -9 -9 -9 -10 -10 -10 -10 -10 -11 -11
-12 -12 -12 -12 -12 -11 -11 -11 -11 -10 -10 -11 -11 -11 -11 -11 -11 -11 -11 -11 -11 -11 -11 -11 -10 -12 -11 -11 -11 -11 -11 -11 -10 -10 -9 -9 -8 -9 -9 -10 -10 -10 -11 -11 -11
-12 -12 -12 -12 -12 -12 -12 -11 -11 -11 -10 -10 -11 -11 -12 -12 -11 -12 -12 -12 -12 -11 -12 -11 -11 -12 -11 -12 -12 -12 -11 -11 -10 -10 -10 -8 -8 -9 -9 -10 -10 -11 -11 -11 -11
-13 -12 -12 -12 -12 -12 -12 -12 -12 -12 -11 -10 -11 -11 -12 -12 -12 -12 -12 -12 -13 -13 -13 -13 -13 -12 -12 -12 -13 -12 -13 -12 -12 -11 -10 -9 -7 -8 -8 -9 -10 -10 -10 -11 -11
-13 -13 -13 -13 -13 -13 -13 -12 -12 -12 -11 -11 -12 -12 -12 -12 -12 -13 -13 -13 -13 -14 -13 -14 -14 -14 -14 -14 -13 -13 -13 -13 -12 -12 -11 -9 -10 -8 -9 -10 -11 -12 -12 -12 -12
-13 -13 -13 -14 -13 -13 -13 -13 -13 -13 -11 -12 -13 -13 -13 -13 -13 -13 -14 -14 -14 -14 -14 -14 -14 -14 -15 -15 -15 -14 -14 -14 -13 -13 -12 -11 -11 -8 -9 -11 -12 -14 -15 -15 -13
-14 -14 -14 -14 -14 -14 -14 -14 -13 -13 -13 -13 -13 -14 -15 -15 -15 -15 -15 -15 -15 -15 -14 -14 -14 -13 -15 -15 -15 -16 -16 -15 -15 -14 -13 -12 -12 -10 -11 -12 -13 -14 -14 -13 -14
-14 -14 -14 -15 -15 -15 -15 -15 -14 -12 -14 -15 -16 -15 -15 -16 -16 -16 -16 -16 -16 -16 -16 -15 -13 -14 -15 -16 -16 -16 -16 -16 -17 -16 -14 -14 -13 -10 -11 -12 -14 -14 -13 -14 -14
-14 -14 -14 -16 -15 -15 -15 -14 -13 -13 -14 -15 -16 -16 -16 -16 -16 -16 -16 -16 -16 -17 -17 -17 -14 -15 -16 -16 -17 -16 -17 -17 -18 -17 -17 -14 -13 -12 -12 -14 -14 -14 -15 -15 -15
-14 -14 -15 -16 -16 -16 -16 -14 -14 -15 -15 -16 -16 -16 -15 -15 -16 -17 -16 -15 -15 -17 -17 -18 -17 -15 -15 -16 -16 -18 -18 -18 -18 -19 -19 -18 -16 -14 -13 -14 -15 -15 -15 -15 -15
-16 -16 -17 -18 -18 -18 -17 -16 -16 -16 -17 -18 -17 -17 -16 -17 -17 -18 -18 -17 -17 -18 -19 -19 -19 -17 -18 -16 -18 -18 -18 -18 -19 -19 -19 -20 -19 -17 -17 -16 -15 -15 -15 -15 -15
-18 -18 -18 -19 -18 -18 -17 -17 -18 -17 -18 -18 -18 -18 -19 -19 -19 -19 -19 -19 -19 -19 -19 -19 -20 -20 -19 -18 -19 -19 -19 -19 -20 -19 -20 -20 -20 -20 -20 -19 -18 -16 -16 -16 -17
-18 -18 -18 -18 -18 -18 -19 -18 -19 -18 -19 -19 -20 -20 -20 -20 -20 -20 -20 -20 -20 -20 -20 -20 -20 -20 -20 -19 -19 -19 -20 -20 -19 -20 -20 -21 -20 -20 -21 -21 -20 -20 -19 -17 -17
-19 -19 -19 -19 -19 -19 -19 -19 -19 -19 -19 -20 -20 -20 -20 -21 -21 -21 -21 -21 -21 -21 -21 -21 -21 -21 -21 -21 -21 -21 -21 -21 -21 -21 -21 -21 -22 -21 -22 -21 -21 -20 -20 -20 -19
-20 -20 -19 -20 -20 -20 -21 -20 -20 -21 -21 -21 -21 -22 -22 -22 -22 -22 -22 -22 -22 -22 -22 -22 -22 -22 -22 -22 -22 -22 -22 -22 -21 -22 -23 -22 -22 -22 -22 -22 -22 -22 -21 -21 -21
-21 -21 -21 -21 -21 -21 -21 -21 -21 -21 -22 -21 -23 -22 -23 -23 -23 -23 -23 -23 -23 -22 -23 -22 -23 -23 -22 -22 -23 -23 -23 -22 -22 -23 -23 -23 -23 -23 -23 -23 -23 -23 -23 -23 -23
-22 -22 -22 -22 -22 -22 -22 -22 -22 -22 -22 -22 -23 -23 -23 -23 -24 -24 -24 -24 -23 -23 -23 -24 -24 -24 -24 -24 -24 -24 -23 -23 -24 -24 -24 -24 -25 -25 -25 -25 -24 -24 -24 -24 -24
Height
5874 5875 5876 5877 5877 5878 5879 5880 5880 5880 5881 5881 5881 5881 5881 5881 5880 5880 5880 5879 5878 5877 5877 5876 5875 5874 5873 5873 5872 5872 5872 5871 5868 5868 5867 5867 5867 5865 5865 5864 5861 5860 5861 5861 5861
5870 5871 5872 5873 5874 5874 5875 5876 5876 5876 5876 5876 5877 5877 5877 5877 5876 5876 5875 5874 5874 5873 5873 5872 5871 5870 5869 5868 5868 5868 5868 5866 5864 5862 5863 5862 5863 5860 5860 5859 5855 5856 5854 5855 5855
5866 5867 5868 5869 5869 5870 5871 5871 5872 5872 5871 5871 5871 5872 5872 5872 5871 5871 5870 5869 5869 5868 5867 5867 5865 5865 5864 5863 5863 5865 5863 5860 5859 5857 5857 5857 5857 5855 5852 5855 5850 5849 5849 5849 5849
5860 5862 5863 5864 5864 5865 5865 5866 5866 5866 5866 5866 5866 5867 5867 5868 5867 5865 5864 5864 5863 5862 5862 5861 5860 5859 5859 5857 5857 5858 5858 5856 5856 5852 5851 5850 5851 5849 5846 5849 5842 5844 5844 5844 5842
5853 5855 5856 5857 5857 5858 5858 5859 5859 5859 5859 5860 5860 5860 5862 5864 5859 5859 5859 5858 5858 5857 5856 5855 5854 5852 5852 5851 5851 5851 5851 5851 5850 5847 5845 5842 5844 5839 5845 5840 5839 5838 5839 5838 5836
5845 5846 5848 5849 5849 5850 5850 5851 5851 5851 5851 5852 5852 5853 5856 5860 5854 5852 5853 5853 5853 5852 5850 5848 5848 5845 5844 5844 5843 5843 5844 5845 5845 5843 5837 5831 5835 5835 5842 5830 5831 5830 5832 5830 5830
5837 5838 5839 5840 5841 5842 5842 5843 5844 5844 5844 5844 5844 5845 5849 5852 5849 5847 5845 5846 5846 5845 5844 5841 5839 5838 5837 5838 5837 5833 5834 5837 5840 5834 5825 5822 5826 5831 5831 5825 5823 5825 5824 5822 5823
5829 5830 5832 5833 5834 5834 5835 5836 5836 5836 5836 5836 5835 5836 5841 5844 5842 5840 5838 5838 5838 5836 5835 5834 5831 5828 5829 5831 5829 5825 5821 5824 5831 5827 5821 5814 5813 5824 5819 5816 5817 5818 5819 5816 5816
5821 5822 5822 5823 5824 5825 5826 5827 5827 5827 5827 5827 5827 5825 5831 5834 5835 5832 5832 5831 5829 5827 5825 5825 5822 5820 5822 5823 5817 5817 5808 5811 5817 5825 5812 5802 5799 5814 5812 5808 5811 5813 5812 5811 5808
5812 5812 5813 5813 5814 5815 5816 5816 5817 5818 5818 5818 5817 5818 5817 5822 5824 5826 5825 5823 5821 5818 5817 5815 5811 5810 5815 5811 5804 5805 5802 5802 5802 5815 5804 5793 5790 5797 5802 5801 5804 5804 5803 5802 5799
5802 5803 5803 5804 5805 5806 5806 5807 5808 5808 5809 5808 5807 5807 5808 5807 5810 5814 5815 5814 5812 5810 5808 5805 5802 5804 5805 5799 5795 5794 5792 5788 5796 5797 5786 5793 5784 5787 5794 5794 5796 5795 5793 5791 5788
5791 5792 5792 5794 5794 5794 5795 5795 5796 5796 5798 5797 5798 5796 5796 5796 5796 5800 5803 5803 5803 5802 5799 5798 5791 5797 5791 5790 5789 5787 5782 5783 5780 5782 5777 5776 5772 5777 5780 5788 5785 5784 5783 5778 5777
5779 5780 5780 5782 5782 5782 5783 5784 5784 5784 5782 5787 5787 5785 5785 5785 5785 5789 5788 5788 5789 5789 5790 5785 5783 5783 5781 5779 5777 5775 5772 5772 5767 5770 5770 5764 5760 5765 5774 5776 5777 5771 5769 5769 5771
5767 5767 5769 5769 5771 5770 5771 5772 5772 5773 5770 5768 5769 5773 5773 5776 5777 5775 5775 5776 5775 5775 5774 5771 5775 5772 5770 5768 5765 5763 5765 5763 5759 5757 5754 5756 5746 5755 5758 5762 5763 5760 5756 5753 5754
5754 5754 5755 5755 5756 5757 5758 5760 5760 5762 5758 5755 5752 5757 5761 5764 5763 5764 5763 5763 5762 5761 5761 5762 5760 5762 5760 5761 5757 5756 5752 5751 5751 5748 5746 5743 5743 5744 5745 5743 5743 5743 5743 5744 5743
5742 5743 5743 5744 5744 5744 5745 5746 5748 5752 5740 5742 5743 5747 5748 5748 5749 5749 5749 5749 5747 5745 5744 5745 5745 5744 5745 5744 5743 5742 5740 5737 5734 5735 5734 5738 5736 5737 5734 5732 5729 5727 5730 5728 5724
5730 5731 5731 5731 5732 5732 5733 5734 5737 5733 5733 5735 5735 5735 5736 5734 5733 5733 5735 5738 5737 5733 5732 5730 5731 5730 5729 5727 5729 5727 5724 5719 5716 5717 5722 5724 5725 5729 5726 5726 5719 5717 5713 5709 5703
5716 5719 5719 5718 5718 5718 5721 5724 5721 5722 5726 5725 5725 5724 5722 5722 5719 5718 5717 5720 5722 5720 5715 5712 5716 5717 5717 5714 5712 5710 5710 5707 5697 5701 5703 5703 5703 5723 5719 5709 5706 5697 5694 5693 5689
5701 5704 5706 5702 5703 5704 5706 5709 5710 5711 5712 5711 5710 5707 5712 5708 5703 5703 5703 5706 5707 5707 5699 5693 5696 5697 5697 5696 5698 5694 5690 5694 5681 5677 5675 5685 5688 5699 5708 5696 5688 5681 5679 5679 5675
5685 5688 5692 5686 5686 5687 5689 5695 5697 5698 5695 5691 5690 5691 5692 5690 5686 5685 5685 5690 5691 5688 5682 5676 5671 5685 5679 5681 5681 5675 5677 5670 5669 5658 5653 5651 5664 5671 5688 5674 5669 5665 5661 5661 5661
5667 5669 5676 5674 5671 5671 5674 5679 5682 5682 5676 5672 5672 5670 5674 5674 5669 5667 5666 5669 5672 5670 5667 5661 5654 5664 5659 5663 5664 5658 5654 5652 5649 5644 5634 5630 5630 5658 5648 5650 5649 5647 5643 5642 5641
5652 5655 5659 5657 5658 5659 5663 5666 5667 5667 5661 5656 5656 5657 5656 5656 5652 5650 5651 5652 5656 5650 5647 5649 5637 5631 5642 5647 5640 5638 5634 5634 5628 5627 5622 5614 5612 5625 5625 5626 5627 5628 5626 5621 5619
5641 5642 5643 5643 5644 5645 5646 5648 5649 5652 5649 5642 5638 5641 5642 5637 5633 5636 5635 5638 5640 5638 5631 5630 5623 5618 5618 5629 5626 5621 5623 5622 5616 5612 5610 5605 5602 5609 5605 5605 5608 5607 5606 5603 5602
5626 5626 5626 5627 5628 5629 5628 5634 5632 5635 5632 5626 5624 5623 5624 5618 5621 5613 5617 5616 5621 5620 5618 5612 5608 5606 5603 5606 5604 5601 5604 5604 5601 5589 5588 5586 5586 5589 5586 5590 5588 5585 5585 5584 5583
5609 5610 5611 5610 5613 5611 5606 5613 5614 5613 5610 5610 5606 5610 5605 5599 5602 5602 5602 5601 5601 5601 5598 5593 5587 5590 5588 5589 5582 5580 5582 5585 5579 5577 5565 5567 5563 5568 5563 5564 5564 5563 5563 5562 5561
5591 5593 5595 5594 5595 5595 5590 5597 5597 5598 5591 5598 5584 5594 5589 5583 5581 5582 5580 5584 5580 5583 5579 5576 5567 5566 5563 5570 5562 5554 5561 5564 5564 5559 5549 5546 5542 5544 5541 5539 5537 5537 5536 5536 5537
5575 5575 5576 5579 5580 5579 5580 5577 5579 5578 5575 5576 5573 5571 5574 5568 5564 5562 5561 5561 5560 5560 5560 5556 5550 5547 5537 5547 5537 5529 5548 5543 5539 5540 5533 5526 5524 5519 5516 5516 5515 5514 5511 5512 5511
Wind_Speed
21 20 18 17 16 17 16 15 15 15 15 15 15 15 15 16 17 18 18 19 19 18 19 19 19 20 20 21 22 23 22 20 23 23 21 20 19 20 19 20 22 24 21 21 19
22 21 20 19 18 17 18 19 20 20 21 22 22 21 21 21 23 23 22 22 22 22 22 21 21 22 23 24 24 25 23 23 26 27 25 24 22 24 23 22 25 25 28 24 24
25 24 24 24 24 23 23 23 24 25 26 26 27 26 26 26 26 25 26 26 25 24 23 23 25 25 24 26 27 27 25 25 25 29 28 25 23 26 27 22 27 28 28 28 28
32 31 31 30 29 29 30 30 31 31 32 31 31 31 30 28 29 29 28 26 25 25 26 26 26 28 28 29 30 29 25 26 25 29 30 29 27 27 31 24 31 31 30 30 32
39 38 38 37 36 36 36 36 37 37 38 38 37 35 32 27 29 30 27 26 27 28 28 30 31 34 33 34 32 31 30 28 27 28 30 33 29 36 29 29 31 31 27 29 30
39 40 40 41 41 41 41 41 40 39 38 37 35 33 29 21 29 30 30 31 30 30 33 37 38 41 40 39 39 37 34 31 30 31 34 38 33 35 23 37 34 31 29 31 30
36 36 35 36 36 36 35 34 34 35 36 37 38 37 33 25 29 32 33 32 34 37 39 41 42 44 43 41 41 43 41 35 30 34 41 43 38 32 31 37 38 34 32 33 33
41 41 40 39 39 40 40 41 41 41 41 41 42 42 35 30 33 35 37 37 38 39 40 40 42 44 44 43 42 44 45 42 33 37 41 46 44 32 35 37 36 36 35 37 36
44 44 44 44 44 45 44 43 43 43 44 44 45 47 42 36 35 38 38 38 40 42 43 42 44 46 43 41 46 44 50 48 42 32 43 48 49 36 36 39 35 33 34 33 34
46 46 46 45 45 45 45 45 45 45 47 49 49 49 49 43 41 39 40 42 43 44 44 44 47 49 43 43 50 50 52 50 48 36 43 51 52 45 40 40 35 34 34 33 32
50 51 51 50 50 49 50 50 49 49 49 50 52 53 51 51 48 45 44 45 46 46 45 47 52 48 44 47 50 51 53 55 46 43 52 47 50 47 40 38 35 34 33 35 36
52 52 51 50 48 49 49 50 49 50 49 50 52 53 54 54 53 49 46 46 45 47 48 49 53 46 49 51 52 51 54 53 52 48 51 51 51 48 47 39 36 35 28 32 32
55 54 54 53 52 52 52 52 53 54 57 52 55 59 60 56 53 48 47 46 46 47 47 51 51 48 51 50 50 50 52 51 55 51 51 55 58 54 47 42 34 37 39 38 38
58 58 58 61 60 60 59 59 59 58 60 61 58 55 50 51 51 49 46 44 42 40 39 46 39 43 45 47 45 50 46 51 52 53 56 54 56 54 55 49 45 45 44 41 33
57 61 56 56 57 57 56 58 55 54 58 57 56 53 50 48 48 45 45 47 48 49 52 51 49 48 51 49 54 54 55 54 56 57 59 62 60 59 58 60 53 50 48 46 46
49 49 48 48 51 50 50 50 49 47 59 57 55 51 50 51 52 52 51 48 48 48 51 51 52 53 50 52 54 58 59 61 63 64 64 60 61 59 61 62 60 47 23 43 53
54 53 51 51 50 52 49 49 49 53 55 54 53 51 49 50 50 53 52 51 51 52 53 55 53 55 50 53 52 52 55 60 63 63 65 66 66 66 64 61 63 59 54 53 54
56 58 53 48 48 51 51 50 55 58 52 50 51 54 53 52 54 54 53 54 54 55 59 62 65 58 59 58 60 61 61 62 64 66 67 66 71 65 68 67 60 61 63 62 62
57 53 53 52 55 54 55 60 60 59 58 56 53 56 57 58 59 62 63 62 60 59 63 67 70 65 62 63 62 65 66 61 67 68 69 73 73 67 64 67 70 69 66 65 67
62 59 56 57 57 59 62 64 63 61 63 64 65 64 63 64 65 64 64 66 65 64 63 64 70 74 73 68 69 64 61 64 64 65 69 73 73 72 65 66 69 73 75 75 73
64 62 59 55 57 60 65 65 63 61 62 61 65 66 67 65 64 64 65 66 65 64 62 61 67 72 71 74 67 67 67 67 67 69 68 65 72 65 63 65 67 68 70 71 71
61 62 59 56 58 59 59 55 56 59 58 59 60 61 60 61 63 64 65 64 63 66 67 64 64 68 69 71 70 70 67 64 64 56 63 68 65 54 58 68 70 70 68 70 69
54 53 54 54 54 53 53 54 54 54 55 58 59 59 58 61 65 64 63 64 62 62 60 59 61 66 67 65 67 66 60 43 44 58 72 67 63 61 65 57 56 66 68 70 70
54 55 55 55 56 56 57 56 58 57 58 58 58 60 61 62 61 66 64 64 63 65 65 66 68 68 67 67 68 68 61 62 74 76 71 74 76 73 69 62 64 63 60 63 68
56 57 57 57 57 55 57 59 58 57 55 55 58 55 57 60 61 61 61 61 62 64 65 67 69 68 67 68 66 73 72 68 71 75 82 79 79 73 72 73 73 74 76 77 78
56 56 57 56 54 56 57 57 58 58 62 62 62 59 59 61 63 63 64 64 65 65 68 69 73 73 75 71 75 78 74 73 73 74 75 75 76 74 73 72 74 77 79 75 74
56 56 57 57 56 59 61 61 62 63 66 64 66 66 64 66 68 70 70 71 72 71 71 73 75 76 81 75 79 83 75 75 75 74 75 77 75 75 76 76 78 78 80 80 80
Wind_Direction
259 259 259 258 254 251 255 258 267 278 285 290 294 296 299 301 299 299 300 297 299 302 302 300 299 299 299 300 301 304 307 302 295 295 290 290 293 289 289 284 276 278 278 284 284
255 255 254 256 257 256 256 260 269 277 284 288 292 296 298 299 298 300 299 294 296 298 296 296 296 296 296 295 297 301 307 298 299 294 296 296 294 289 287 282 278 275 278 279 278
258 260 260 261 263 266 268 270 273 277 281 285 287 289 291 293 292 292 290 291 293 292 292 292 292 292 294 297 301 310 311 298 298 297 300 300 294 291 284 281 278 274 275 280 276
264 264 265 267 268 270 272 274 277 280 283 285 286 287 287 288 286 282 285 287 287 286 285 287 290 292 294 294 297 300 302 296 301 301 302 297 297 287 281 288 275 281 286 283 279
266 266 268 269 270 272 274 277 279 281 282 283 282 282 281 285 279 283 283 281 282 285 289 291 293 293 292 293 292 295 292 295 296 301 299 294 294 289 310 287 286 292 292 288 285
264 265 266 267 268 269 271 273 276 277 277 276 276 276 278 280 274 282 282 283 284 284 288 290 291 291 290 290 290 289 286 287 294 298 292 283 281 293 308 288 292 292 289 286 287
263 263 264 265 266 266 266 266 267 270 272 274 275 274 274 270 271 273 277 279 282 287 289 290 292 291 290 290 290 289 288 286 289 281 279 281 282 293 290 284 286 285 288 288 288
261 262 264 265 265 267 268 270 270 270 270 271 272 273 272 268 271 271 274 281 283 284 285 286 287 288 292 291 290 286 286 283 271 276 282 281 283 281 277 280 284 290 294 297 293
261 263 264 266 267 269 269 270 271 272 272 273 274 276 276 273 268 269 272 276 280 283 284 286 287 286 288 294 288 287 282 283 285 283 279 277 279 278 274 277 285 290 291 286 286
265 264 265 265 265 268 270 271 271 273 274 275 274 275 275 275 273 272 276 278 278 279 282 284 284 285 291 287 284 285 286 287 287 288 275 277 281 279 280 283 289 291 292 288 278
266 267 268 269 269 269 271 271 271 271 273 274 276 277 278 278 274 273 273 274 276 275 276 277 282 285 285 281 282 284 286 286 288 287 281 281 281 284 282 283 288 284 287 282 279
265 267 267 268 268 269 269 270 270 271 269 275 277 280 279 278 278 279 276 275 273 273 272 277 279 283 277 279 281 282 283 286 285 284 282 284 280 279 285 292 291 291 284 283 274
261 262 264 266 267 266 268 269 270 271 273 271 274 277 279 276 278 280 279 277 275 274 274 272 276 278 279 276 275 274 276 277 279 280 277 282 283 284 288 289 286 282 281 279 285
261 261 263 266 266 267 268 271 270 271 276 277 275 274 277 275 278 280 281 281 276 277 272 272 274 274 273 273 270 271 274 274 277 277 279 278 281 284 288 288 284 282 282 284 281
264 262 266 267 267 267 267 269 272 275 276 275 276 278 279 281 280 279 277 275 276 275 275 278 276 275 274 273 274 274 274 274 273 273 276 278 279 285 287 291 289 289 290 295 294
260 263 264 267 265 266 268 270 272 272 270 272 279 282 282 282 280 279 277 276 276 274 274 276 279 279 279 275 274 275 275 274 271 270 269 273 278 277 279 283 287 300 293 286 285
263 261 261 264 267 270 271 274 273 268 273 278 283 284 283 283 281 280 278 276 276 276 276 277 275 276 275 276 278 278 279 278 276 275 273 272 269 272 274 279 284 285 280 280 284
264 263 263 262 264 267 272 273 271 273 275 277 283 283 282 284 281 279 277 277 278 275 275 275 272 273 276 276 276 276 278 277 282 280 277 271 267 269 274 279 282 279 279 280 283
256 255 258 265 264 268 274 270 274 276 275 280 280 278 276 278 279 279 279 279 278 278 277 278 276 279 279 279 281 282 281 287 283 281 279 276 275 270 272 273 274 275 275 276 278
255 255 262 277 276 278 278 276 277 281 284 284 283 282 281 281 281 281 280 280 281 280 280 280 279 273 276 281 280 284 286 283 282 280 281 282 279 277 272 269 269 270 272 272 273
267 269 269 273 274 273 278 282 281 281 282 281 282 282 283 285 283 283 282 283 283 280 278 277 278 281 280 279 283 283 281 280 281 281 282 284 287 285 279 274 271 271 270 270 270
280 277 277 273 267 271 275 277 275 277 278 278 277 279 280 279 278 279 280 281 281 279 280 279 285 283 281 282 284 285 284 283 276 277 279 288 285 280 280 282 281 276 275 276 275
266 265 266 267 270 274 274 274 276 278 279 279 279 280 280 277 276 276 275 276 277 278 279 277 269 272 276 277 277 274 278 265 256 263 272 277 275 275 280 277 270 274 277 276 274
268 269 270 272 274 276 277 278 281 281 281 281 281 279 279 277 277 279 279 279 277 276 275 274 272 272 275 279 276 273 270 266 268 270 271 268 272 276 277 269 265 259 258 262 262
271 273 274 277 278 279 280 285 286 285 282 281 281 280 280 279 278 279 279 278 277 276 276 275 274 272 269 267 270 272 269 263 261 270 274 276 275 277 276 275 272 268 267 267 268
273 274 276 276 277 279 280 283 283 284 284 284 282 284 283 284 284 284 283 281 278 275 273 272 272 272 271 269 268 269 269 272 271 272 274 276 278 279 278 274 271 272 275 274 271
272 272 273 275 274 276 278 279 280 280 281 282 282 283 282 283 283 283 282 281 279 279 277 273 271 272 271 271 270 268 272 270 271 273 276 277 277 277 276 274 274 275 275 275 274